Location: ???? ??
(36.0534°N, 43.5630°E)
Time: 14:51:05
(UTC+00:00)

Cosmos 1455 Rocket - Pass Details

Date: 18 September 2019
Orbit: 605 x 630 km, 82.5° (Epoch: 16 October)

Event Time Altitude Azimuth Distance (km) Brightness Sun altitude
Exits shadow 17:02:15 45° 35° (NE) 856 3.6 -23.1°
Drops below altitude 10° 17:05:30 10° 14° (NNE) 2,007 5.7 -23.7°
Sets 17:07:45 0° 11° (N) 2,921 6.7 -24.2°
